QPF
0.00 0.00 0.00 0.00 0.00 0.00 0.00 0.00 0.00 0.00 0.00 0.00 0.00 0.00 0.00 0.00 0.00 0.00 0.00 0.00 0.00 0.00 0.00 0.00 0.00 0.00 0.00 0.00 0.00 0.00 0.00 0.00 0.00 0.00 0.00 0.00 0.00 0.00 0.00 0.00 0.00 0.00 0.00 0.00 0.00
0.00 0.00 0.00 0.00 0.00 0.00 0.00 0.00 0.00 0.00 0.00 0.00 0.00 0.00 0.00 0.00 0.00 0.00 0.00 0.00 0.00 0.00 0.00 0.00 0.00 0.00 0.00 0.00 0.00 0.00 0.00 0.00 0.00 0.00 0.00 0.00 0.00 0.00 0.00 0.00 0.00 0.00 0.00 0.00 0.00
0.00 0.00 0.00 0.00 0.00 0.00 0.00 0.00 0.00 0.00 0.00 0.00 0.00 0.00 0.00 0.00 0.00 0.00 0.00 0.00 0.00 0.00 0.00 0.00 0.00 0.00 0.00 0.00 0.00 0.00 0.00 0.00 0.00 0.00 0.00 0.00 0.00 0.00 0.00 0.00 0.00 0.00 0.00 0.00 0.00
0.00 0.00 0.00 0.00 0.00 0.00 0.00 0.00 0.00 0.00 0.00 0.00 0.00 0.00 0.00 0.00 0.00 0.00 0.00 0.00 0.00 0.00 0.00 0.00 0.00 0.00 0.00 0.00 0.00 0.00 0.00 0.00 0.00 0.00 0.00 0.00 0.00 0.00 0.00 0.00 0.00 0.00 0.00 0.00 0.00
0.00 0.00 0.00 0.00 0.00 0.00 0.00 0.00 0.00 0.00 0.00 0.00 0.00 0.00 0.00 0.00 0.00 0.00 0.00 0.00 0.00 0.00 0.00 0.00 0.00 0.00 0.00 0.00 0.00 0.00 0.00 0.00 0.00 0.00 0.00 0.00 0.00 0.00 0.00 0.00 0.00 0.00 0.00 0.00 0.00
0.00 0.00 0.00 0.00 0.00 0.00 0.00 0.00 0.00 0.00 0.00 0.00 0.00 0.00 0.00 0.00 0.00 0.00 0.00 0.00 0.00 0.00 0.00 0.00 0.00 0.00 0.00 0.00 0.00 0.00 0.00 0.00 0.00 0.00 0.00 0.00 0.00 0.00 0.00 0.00 0.00 0.00 0.00 0.00 0.00
0.00 0.00 0.00 0.00 0.00 0.00 0.00 0.00 0.00 0.00 0.00 0.00 0.00 0.00 0.00 0.00 0.00 0.00 0.00 0.00 0.00 0.00 0.00 0.00 0.00 0.00 0.00 0.00 0.00 0.00 0.00 0.00 0.00 0.00 0.00 0.00 0.00 0.00 0.00 0.00 0.00 0.00 0.00 0.00 0.00
0.00 0.00 0.00 0.00 0.00 0.00 0.00 0.00 0.00 0.00 0.00 0.00 0.00 0.00 0.00 0.00 0.00 0.00 0.00 0.00 0.00 0.00 0.00 0.00 0.00 0.00 0.00 0.00 0.00 0.00 0.00 0.00 0.00 0.00 0.00 0.00 0.00 0.00 0.00 0.00 0.00 0.00 0.00 0.00 0.00
0.00 0.00 0.00 0.00 0.00 0.00 0.00 0.00 0.00 0.00 0.00 0.00 0.00 0.00 0.00 0.00 0.00 0.00 0.00 0.00 0.00 0.00 0.00 0.00 0.00 0.00 0.00 0.00 0.00 0.00 0.00 0.00 0.00 0.00 0.00 0.00 0.00 0.00 0.00 0.00 0.00 0.00 0.00 0.01 0.01
0.00 0.00 0.00 0.00 0.00 0.00 0.00 0.00 0.00 0.00 0.00 0.00 0.00 0.00 0.00 0.00 0.00 0.00 0.00 0.00 0.00 0.00 0.00 0.00 0.00 0.00 0.00 0.00 0.00 0.00 0.00 0.00 0.00 0.00 0.00 0.00 0.00 0.00 0.00 0.00 0.00 0.00 0.00 0.00 0.00
0.00 0.00 0.00 0.00 0.00 0.00 0.00 0.00 0.00 0.00 0.00 0.00 0.00 0.00 0.00 0.00 0.00 0.00 0.00 0.00 0.00 0.00 0.00 0.00 0.00 0.00 0.00 0.00 0.00 0.00 0.00 0.00 0.00 0.00 0.00 0.00 0.00 0.00 0.00 0.00 0.00 0.00 0.00 0.00 0.00
0.00 0.00 0.00 0.00 0.00 0.00 0.00 0.00 0.00 0.00 0.00 0.00 0.00 0.00 0.00 0.00 0.00 0.00 0.00 0.00 0.00 0.00 0.00 0.00 0.00 0.00 0.00 0.00 0.00 0.00 0.00 0.00 0.00 0.00 0.00 0.00 0.00 0.00 0.00 0.00 0.00 0.00 0.00 0.00 0.00
0.00 0.00 0.00 0.00 0.00 0.00 0.00 0.00 0.00 0.00 0.00 0.00 0.00 0.00 0.00 0.00 0.00 0.00 0.00 0.00 0.00 0.00 0.00 0.00 0.00 0.00 0.00 0.00 0.00 0.00 0.00 0.00 0.00 0.00 0.00 0.00 0.00 0.00 0.00 0.00 0.00 0.00 0.00 0.00 0.00
0.00 0.00 0.00 0.00 0.00 0.00 0.00 0.00 0.00 0.00 0.00 0.00 0.00 0.00 0.00 0.00 0.00 0.00 0.00 0.00 0.00 0.00 0.00 0.00 0.00 0.00 0.00 0.00 0.00 0.00 0.00 0.00 0.00 0.00 0.00 0.00 0.00 0.00 0.00 0.00 0.00 0.00 0.00 0.00 0.00
0.00 0.00 0.00 0.00 0.00 0.00 0.00 0.00 0.00 0.00 0.00 0.00 0.00 0.00 0.00 0.00 0.00 0.00 0.00 0.00 0.00 0.00 0.00 0.00 0.00 0.00 0.00 0.00 0.00 0.00 0.00 0.00 0.00 0.00 0.00 0.00 0.00 0.00 0.00 0.00 0.00 0.00 0.00 0.00 0.00
0.00 0.00 0.00 0.00 0.00 0.00 0.00 0.00 0.00 0.00 0.00 0.00 0.00 0.00 0.00 0.00 0.00 0.00 0.00 0.00 0.00 0.00 0.00 0.00 0.00 0.00 0.00 0.00 0.00 0.00 0.00 0.00 0.00 0.00 0.00 0.00 0.00 0.00 0.00 0.00 0.00 0.00 0.00 0.00 0.00
0.00 0.00 0.00 0.00 0.00 0.00 0.00 0.00 0.00 0.00 0.00 0.00 0.00 0.00 0.00 0.00 0.00 0.00 0.00 0.00 0.00 0.00 0.00 0.00 0.00 0.00 0.00 0.00 0.00 0.00 0.00 0.00 0.00 0.00 0.00 0.00 0.00 0.00 0.00 0.00 0.00 0.00 0.00 0.00 0.00
0.00 0.00 0.00 0.00 0.00 0.00 0.00 0.00 0.00 0.00 0.00 0.00 0.00 0.00 0.00 0.00 0.00 0.00 0.00 0.00 0.00 0.00 0.00 0.00 0.00 0.00 0.00 0.00 0.00 0.00 0.00 0.00 0.00 0.00 0.00 0.00 0.00 0.00 0.00 0.00 0.00 0.00 0.00 0.00 0.00
0.00 0.00 0.00 0.00 0.00 0.00 0.00 0.00 0.00 0.00 0.00 0.00 0.00 0.00 0.00 0.00 0.00 0.00 0.00 0.00 0.00 0.00 0.00 0.00 0.00 0.00 0.00 0.00 0.00 0.00 0.00 0.00 0.00 0.00 0.00 0.00 0.00 0.00 0.00 0.00 0.00 0.00 0.00 0.00 0.00
0.00 0.00 0.00 0.00 0.00 0.00 0.00 0.00 0.00 0.00 0.00 0.00 0.00 0.00 0.00 0.00 0.00 0.00 0.00 0.00 0.00 0.00 0.00 0.00 0.00 0.00 0.00 0.00 0.00 0.00 0.00 0.00 0.00 0.00 0.00 0.00 0.00 0.00 0.00 0.00 0.00 0.00 0.00 0.00 0.00
0.00 0.00 0.00 0.00 0.00 0.00 0.00 0.00 0.00 0.00 0.00 0.00 0.00 0.00 0.00 0.00 0.00 0.00 0.00 0.00 0.00 0.00 0.00 0.00 0.00 0.00 0.00 0.00 0.00 0.00 0.00 0.00 0.00 0.00 0.00 0.00 0.00 0.00 0.00 0.00 0.00 0.00 0.00 0.00 0.00
0.00 0.00 0.00 0.00 0.00 0.00 0.00 0.00 0.00 0.00 0.00 0.00 0.00 0.00 0.00 0.00 0.00 0.00 0.00 0.00 0.00 0.00 0.00 0.00 0.00 0.00 0.00 0.00 0.00 0.00 0.00 0.00 0.00 0.00 0.00 0.00 0.00 0.00 0.00 0.00 0.00 0.00 0.00 0.00 0.00
0.00 0.00 0.00 0.00 0.00 0.00 0.00 0.00 0.00 0.00 0.00 0.00 0.00 0.00 0.00 0.00 0.00 0.00 0.00 0.00 0.00 0.00 0.00 0.00 0.00 0.00 0.00 0.00 0.00 0.00 0.00 0.00 0.00 0.00 0.00 0.00 0.00 0.00 0.00 0.00 0.00 0.00 0.00 0.00 0.00
0.00 0.00 0.00 0.00 0.00 0.00 0.00 0.00 0.00 0.00 0.00 0.00 0.00 0.00 0.00 0.00 0.00 0.00 0.00 0.00 0.00 0.00 0.00 0.00 0.00 0.00 0.00 0.00 0.00 0.00 0.00 0.00 0.00 0.00 0.00 0.00 0.00 0.00 0.00 0.00 0.00 0.00 0.00 0.00 0.00
0.00 0.00 0.00 0.00 0.00 0.00 0.00 0.00 0.00 0.00 0.00 0.00 0.00 0.00 0.00 0.00 0.00 0.00 0.00 0.00 0.00 0.00 0.00 0.00 0.00 0.00 0.00 0.00 0.00 0.00 0.00 0.00 0.00 0.00 0.00 0.00 0.00 0.00 0.00 0.00 0.00 0.00 0.00 0.00 0.00
0.00 0.00 0.00 0.00 0.00 0.00 0.00 0.00 0.00 0.00 0.00 0.00 0.00 0.00 0.00 0.00 0.00 0.00 0.00 0.00 0.00 0.00 0.00 0.00 0.00 0.00 0.00 0.00 0.00 0.00 0.00 0.00 0.00 0.00 0.00 0.00 0.00 0.00 0.00 0.00 0.00 0.00 0.00 0.00 0.00
0.00 0.00 0.00 0.00 0.00 0.00 0.00 0.00 0.00 0.00 0.00 0.00 0.00 0.00 0.00 0.00 0.00 0.00 0.00 0.00 0.00 0.00 0.00 0.00 0.00 0.00 0.00 0.00 0.00 0.00 0.00 0.00 0.00 0.00 0.00 0.00 0.00 0.00 0.00 0.00 0.00 0.00 0.00 0.00 0.00
MSLP
1014.86 1014.79 1014.67 1014.56 1014.42 1014.23 1014.04 1013.89 1013.69 1013.64 1013.53 1013.44 1013.35 1013.15 1013.04 1012.87 1012.42 1012.44 1011.48 1008.97 1008.88 1008.68 1008.75 1008.96 1009.03 1009.17 1009.30 1009.79 1010.15 1010.87 1012.34 1012.85 1011.95 1011.11 1010.33 1009.49 1009.03 1008.72 1008.17 1007.78 1007.86 1008.22 1009.03 1009.61 1010.69
1014.82 1014.68 1014.55 1014.46 1014.29 1014.12 1013.97 1013.79 1013.59 1013.46 1013.36 1013.36 1013.20 1013.05 1012.87 1012.62 1012.48 1011.31 1008.19 1008.13 1008.46 1008.54 1008.74 1008.95 1009.27 1009.28 1009.83 1010.10 1010.53 1011.07 1012.24 1012.14 1010.99 1010.20 1010.24 1009.73 1009.31 1008.84 1008.44 1008.09 1008.19 1008.71 1009.49 1010.04 1010.99
1014.82 1014.62 1014.41 1014.21 1014.05 1013.92 1013.71 1013.54 1013.44 1013.33 1013.30 1013.19 1012.98 1012.87 1012.74 1012.75 1012.10 1008.84 1007.38 1007.81 1008.17 1008.41 1008.55 1008.79 1009.18 1009.40 1009.98 1010.31 1010.60 1011.14 1011.54 1011.34 1010.37 1009.98 1009.84 1009.59 1009.20 1008.76 1008.52 1008.50 1008.05 1008.76 1009.95 1010.62 1011.25
1014.63 1014.46 1014.30 1014.12 1013.95 1013.73 1013.56 1013.38 1013.25 1013.15 1013.06 1013.03 1012.90 1012.77 1012.60 1012.54 1010.75 1007.88 1007.26 1007.22 1008.00 1008.54 1008.78 1009.08 1009.43 1009.89 1010.20 1010.37 1010.22 1010.64 1010.61 1010.48 1010.29 1009.71 1009.58 1009.46 1009.05 1009.00 1009.14 1008.85 1008.70 1008.73 1009.48 1010.48 1011.35
1014.57 1014.37 1014.12 1013.90 1013.69 1013.44 1013.26 1013.18 1013.10 1013.01 1012.97 1012.89 1012.84 1012.70 1012.54 1011.82 1009.55 1007.82 1007.64 1007.78 1008.27 1008.64 1008.85 1009.24 1009.58 1009.95 1010.04 1010.14 1010.27 1010.35 1010.28 1010.32 1009.91 1009.86 1009.60 1009.66 1010.92 1010.11 1009.76 1009.91 1009.27 1009.73 1011.36 1013.50 1014.38
1014.60 1014.38 1014.07 1013.79 1013.56 1013.29 1013.05 1012.98 1012.94 1012.89 1012.85 1012.79 1012.72 1012.69 1012.28 1010.79 1007.83 1007.74 1008.05 1008.25 1008.38 1008.65 1008.97 1009.12 1009.36 1009.41 1009.76 1009.93 1010.08 1009.91 1010.02 1010.03 1009.94 1009.64 1010.18 1012.57 1013.64 1012.70 1012.97 1011.39 1012.62 1012.89 1014.30 1015.21 1015.84
1014.42 1014.23 1014.02 1013.71 1013.42 1013.14 1012.89 1012.76 1012.71 1012.70 1012.69 1012.71 1012.67 1012.61 1011.90 1009.03 1007.84 1007.92 1008.15 1008.18 1008.23 1008.34 1008.74 1008.82 1008.94 1009.29 1009.56 1009.86 1009.89 1010.02 1010.23 1010.03 1011.77 1010.77 1011.51 1011.31 1015.39 1017.68 1016.37 1013.65 1014.38 1015.39 1016.27 1016.47 1017.22
1014.28 1014.08 1013.90 1013.66 1013.31 1012.99 1012.73 1012.65 1012.69 1012.73 1012.69 1012.69 1012.64 1012.47 1010.76 1007.82 1007.76 1007.88 1008.03 1008.08 1008.14 1008.12 1008.31 1008.41 1008.82 1009.28 1009.56 1009.88 1010.28 1010.75 1010.96 1011.49 1012.81 1012.28 1013.42 1013.20 1019.64 1019.56 1018.51 1016.22 1016.64 1017.26 1017.76 1018.05 1018.36
1014.02 1013.90 1013.74 1013.51 1013.18 1012.87 1012.66 1012.64 1012.67 1012.66 1012.62 1012.62 1012.64 1012.10 1009.61 1007.51 1007.47 1006.81 1007.21 1007.56 1007.75 1008.03 1008.25 1008.44 1008.83 1009.65 1009.98 1010.52 1011.38 1011.88 1012.23 1012.84 1014.15 1013.75 1013.94 1015.14 1020.12 1021.40 1020.61 1019.03 1018.64 1019.39 1019.55 1019.58 1019.60
1013.83 1013.63 1013.52 1013.36 1013.02 1012.83 1012.70 1012.72 1012.71 1012.74 1012.78 1012.63 1012.21 1011.87 1008.83 1007.41 1006.69 1006.60 1006.87 1007.17 1007.41 1007.77 1008.26 1008.66 1009.54 1010.23 1010.98 1011.38 1012.20 1012.55 1013.14 1014.67 1016.02 1018.31 1017.01 1019.22 1021.63 1022.37 1022.00 1021.16 1021.07 1021.42 1021.51 1021.16 1021.02
1013.51 1013.29 1013.18 1013.16 1012.97 1012.88 1012.88 1012.95 1013.12 1012.78 1012.22 1010.74 1010.18 1009.48 1008.03 1006.92 1006.26 1006.39 1006.47 1006.90 1007.22 1007.87 1008.63 1009.21 1010.23 1010.64 1010.87 1011.22 1011.36 1012.37 1013.36 1015.25 1017.26 1017.41 1018.76 1021.33 1022.39 1023.37 1023.52 1022.84 1023.33 1023.66 1023.44 1023.31 1023.21
1013.30 1013.02 1012.93 1012.92 1012.87 1012.79 1012.83 1012.23 1011.01 1010.85 1010.51 1009.22 1009.15 1008.64 1007.67 1007.13 1006.70 1006.15 1006.19 1006.97 1007.47 1008.26 1008.84 1009.71 1009.98 1009.78 1010.17 1010.65 1011.30 1012.44 1014.27 1016.33 1017.60 1017.90 1019.35 1021.77 1022.92 1024.30 1024.48 1024.75 1025.46 1025.61 1025.30 1025.38 1024.90
1013.05 1012.74 1012.62 1012.66 1012.69 1012.73 1012.27 1011.06 1010.19 1010.21 1010.33 1008.56 1008.10 1007.53 1006.82 1006.92 1006.55 1006.10 1006.17 1006.82 1007.50 1008.37 1008.93 1009.52 1009.14 1009.04 1009.40 1010.04 1010.77 1011.79 1013.03 1014.91 1016.12 1018.17 1019.86 1020.15 1023.21 1024.88 1025.36 1025.70 1026.45 1026.83 1027.01 1026.81 1026.71
1012.73 1012.43 1012.40 1012.43 1013.03 1012.24 1011.48 1010.14 1010.03 1010.20 1010.11 1008.24 1007.28 1005.98 1006.20 1006.30 1006.31 1005.89 1005.98 1006.59 1007.56 1008.14 1008.81 1009.13 1008.64 1008.61 1008.74 1009.04 1009.39 1010.54 1010.92 1013.07 1015.07 1016.54 1018.61 1019.68 1023.73 1025.29 1026.05 1026.69 1027.19 1027.71 1027.77 1027.81 1027.59
1012.45 1012.22 1012.29 1012.43 1012.37 1011.85 1010.54 1010.11 1009.98 1010.08 1009.55 1007.31 1006.22 1005.10 1005.54 1006.05 1006.20 1006.46 1006.42 1006.52 1007.67 1008.16 1008.74 1008.85 1008.44 1008.21 1008.20 1008.18 1008.71 1008.94 1009.78 1011.59 1013.15 1015.26 1017.42 1020.50 1022.73 1025.85 1026.64 1027.46 1028.22 1028.66 1028.76 1028.86 1028.91
1012.34 1012.19 1012.39 1012.56 1012.39 1010.53 1010.08 1009.93 1010.11 1010.45 1008.77 1006.72 1005.70 1005.49 1005.94 1006.05 1006.51 1006.86 1007.01 1007.26 1008.20 1008.56 1009.00 1008.90 1008.32 1008.16 1007.98 1008.04 1008.23 1008.76 1010.29 1012.53 1014.25 1015.77 1018.63 1021.51 1023.50 1027.25 1028.42 1029.56 1029.75 1029.54 1029.31 1029.18 1028.94
1012.18 1012.07 1012.39 1011.78 1011.02 1010.12 1009.82 1010.12 1010.96 1010.16 1008.24 1007.34 1006.41 1006.01 1006.25 1006.81 1007.54 1007.98 1008.89 1009.57 1009.91 1010.01 1010.20 1009.63 1009.05 1008.59 1008.36 1008.53 1008.73 1009.34 1010.96 1013.13 1015.13 1017.22 1020.10 1022.56 1024.78 1028.17 1029.35 1029.93 1030.37 1030.35 1030.23 1030.11 1029.80
1012.08 1012.04 1011.92 1011.28 1010.57 1010.39 1010.17 1010.88 1011.35 1009.86 1008.87 1007.83 1007.10 1006.69 1006.99 1007.40 1008.64 1009.32 1010.13 1011.08 1011.18 1011.20 1011.62 1011.19 1010.46 1009.80 1009.48 1009.81 1010.01 1010.53 1011.44 1013.10 1015.32 1017.98 1020.81 1023.10 1026.59 1028.80 1029.85 1030.37 1030.78 1031.02 1031.02 1030.80 1030.40
1011.93 1012.22 1011.99 1010.11 1010.24 1011.01 1011.31 1012.04 1011.22 1010.23 1009.49 1008.74 1007.86 1007.69 1007.82 1008.25 1009.11 1010.34 1011.36 1011.97 1012.08 1012.08 1012.09 1012.04 1011.59 1010.92 1010.66 1010.78 1011.11 1011.57 1012.44 1013.54 1015.58 1018.35 1021.40 1025.59 1028.20 1029.46 1029.99 1030.65 1030.98 1031.09 1031.11 1031.02 1030.81
1011.95 1011.86 1011.00 1009.81 1010.04 1010.66 1011.74 1012.09 1011.28 1010.31 1009.76 1009.36 1009.12 1008.86 1009.02 1009.49 1010.18 1011.24 1012.15 1012.72 1012.71 1012.69 1012.59 1012.84 1012.81 1012.36 1011.87 1011.71 1012.03 1012.45 1013.70 1014.67 1016.27 1019.20 1022.64 1026.06 1028.26 1029.44 1030.58 1031.22 1031.58 1031.65 1031.64 1031.43 1031.08
1011.96 1011.58 1010.50 1010.08 1010.34 1011.47 1012.61 1012.25 1011.20 1010.49 1010.18 1010.05 1009.99 1010.06 1010.31 1010.82 1011.40 1012.33 1012.91 1013.36 1013.36 1013.31 1013.24 1013.48 1013.82 1014.06 1013.53 1014.68 1014.92 1014.74 1015.41 1016.53 1017.73 1019.72 1022.11 1025.73 1028.47 1030.02 1031.03 1031.61 1031.89 1031.96 1031.83 1031.63 1031.31
1011.81 1011.74 1010.62 1010.43 1011.59 1012.99 1012.95 1012.26 1011.61 1011.16 1010.84 1010.69 1010.78 1011.12 1011.64 1012.10 1012.66 1013.13 1013.52 1013.90 1013.98 1013.99 1014.22 1014.60 1015.34 1016.10 1016.26 1016.54 1016.63 1017.29 1018.26 1018.74 1019.72 1021.61 1023.13 1025.43 1029.42 1030.45 1031.23 1031.75 1032.06 1032.32 1032.08 1031.71 1031.39
1012.15 1012.03 1010.79 1010.73 1012.42 1013.34 1013.00 1012.65 1012.37 1012.03 1012.06 1011.90 1012.04 1012.19 1012.52 1013.28 1013.89 1014.04 1014.19 1014.35 1014.35 1014.62 1015.02 1015.47 1016.98 1017.90 1018.14 1018.27 1018.31 1019.33 1020.29 1020.58 1021.27 1022.44 1025.14 1026.81 1030.24 1031.05 1031.64 1032.02 1032.26 1032.38 1032.14 1031.81 1031.38
1012.55 1012.89 1012.51 1012.72 1013.67 1013.78 1013.75 1013.55 1013.24 1012.90 1013.22 1013.17 1013.24 1013.03 1013.60 1014.33 1014.60 1014.86 1014.88 1014.85 1014.97 1015.38 1015.93 1016.38 1019.17 1019.69 1020.03 1020.03 1020.50 1021.50 1022.08 1022.13 1022.48 1024.16 1026.56 1028.24 1030.26 1031.33 1031.90 1032.34 1032.56 1032.51 1032.26 1031.84 1031.26
1013.21 1014.50 1014.57 1015.12 1015.19 1015.16 1014.63 1014.69 1014.40 1014.45 1014.29 1014.14 1014.27 1014.61 1014.77 1015.27 1015.57 1015.63 1015.57 1015.58 1015.73 1016.16 1016.89 1018.08 1020.96 1021.56 1022.03 1021.96 1022.02 1023.26 1023.80 1023.80 1024.39 1025.84 1026.81 1028.95 1030.20 1031.39 1031.90 1032.25 1032.41 1032.39 1032.13 1031.57 1030.88
1014.26 1014.91 1015.52 1016.45 1016.25 1015.98 1015.98 1016.21 1015.78 1015.79 1015.73 1015.42 1015.52 1015.47 1015.36 1015.70 1015.78 1015.99 1016.14 1016.48 1016.63 1017.13 1018.11 1019.55 1022.27 1022.52 1023.82 1023.75 1023.65 1024.14 1025.15 1025.69 1026.51 1027.46 1028.44 1029.59 1030.88 1031.43 1031.72 1031.98 1032.12 1032.05 1031.84 1031.40 1030.77
1014.88 1015.10 1015.34 1017.76 1017.61 1017.40 1017.97 1017.55 1017.11 1016.68 1016.73 1016.60 1016.52 1016.29 1016.23 1016.40 1016.28 1016.53 1016.74 1017.27 1017.63 1018.07 1019.21 1020.35 1022.11 1023.51 1025.05 1024.54 1024.47 1025.37 1026.60 1026.96 1027.83 1028.39 1029.04 1029.99 1030.83 1031.46 1031.79 1031.85 1031.83 1031.70 1031.53 1031.25 1030.73
Thickness
5719 5721 5724 5727 5730 5734 5738 5741 5743 5744 5746 5747 5749 5751 5753 5756 5760 5760 5765 5789 5792 5796 5796 5793 5791 5788 5787 5780 5781 5774 5734 5730 5750 5758 5773 5788 5790 5802 5812 5810 5814 5818 5808 5811 5806
5717 5720 5723 5725 5728 5732 5736 5739 5742 5744 5745 5746 5748 5750 5752 5755 5757 5762 5795 5797 5794 5795 5790 5783 5777 5781 5767 5771 5767 5754 5730 5740 5765 5778 5774 5782 5787 5795 5800 5803 5804 5807 5808 5807 5801
5714 5718 5721 5724 5727 5731 5734 5738 5740 5742 5744 5746 5748 5749 5751 5752 5757 5777 5798 5797 5794 5793 5791 5787 5780 5775 5764 5764 5762 5751 5739 5756 5770 5779 5783 5783 5788 5802 5797 5792 5805 5801 5797 5798 5797
5714 5717 5719 5722 5726 5729 5732 5736 5738 5741 5743 5744 5746 5748 5750 5751 5750 5788 5797 5798 5793 5789 5785 5776 5770 5758 5751 5753 5762 5754 5762 5766 5771 5780 5786 5784 5798 5796 5795 5800 5810 5812 5808 5800 5794
5712 5715 5718 5722 5725 5728 5731 5734 5736 5739 5740 5742 5743 5745 5747 5749 5758 5788 5791 5791 5788 5783 5775 5768 5760 5754 5748 5754 5758 5755 5763 5760 5771 5776 5783 5790 5773 5786 5794 5799 5811 5806 5791 5768 5759
5709 5712 5716 5719 5723 5727 5730 5732 5734 5736 5738 5739 5740 5742 5745 5740 5783 5785 5784 5783 5781 5777 5769 5767 5762 5763 5756 5757 5754 5758 5762 5766 5773 5780 5777 5743 5741 5755 5756 5779 5758 5764 5751 5744 5741
5707 5710 5713 5716 5720 5724 5727 5730 5732 5733 5734 5735 5737 5739 5741 5751 5779 5779 5779 5778 5778 5777 5766 5771 5771 5764 5761 5754 5761 5760 5756 5765 5738 5766 5760 5765 5719 5703 5728 5755 5744 5736 5732 5733 5731
5704 5707 5710 5713 5717 5721 5724 5726 5728 5729 5730 5731 5733 5735 5737 5774 5776 5775 5775 5774 5776 5776 5774 5775 5771 5763 5756 5759 5746 5743 5739 5734 5731 5741 5736 5742 5670 5692 5709 5729 5725 5723 5721 5720 5719
5703 5705 5708 5711 5714 5718 5720 5722 5723 5724 5725 5727 5728 5731 5736 5772 5767 5778 5776 5768 5770 5770 5771 5774 5766 5750 5748 5732 5716 5718 5714 5727 5712 5731 5731 5722 5676 5677 5692 5704 5708 5703 5704 5708 5710
5702 5704 5705 5708 5711 5713 5715 5716 5717 5718 5719 5721 5725 5722 5749 5754 5769 5773 5775 5771 5764 5763 5757 5755 5737 5727 5719 5712 5689 5706 5706 5687 5686 5683 5699 5680 5663 5668 5676 5683 5685 5686 5689 5694 5698
5701 5703 5704 5705 5707 5708 5710 5711 5711 5712 5716 5727 5733 5735 5747 5760 5772 5766 5770 5763 5760 5748 5730 5737 5719 5708 5715 5718 5721 5717 5701 5683 5680 5693 5680 5660 5657 5656 5661 5665 5663 5663 5668 5671 5675
5699 5702 5703 5703 5704 5705 5707 5712 5722 5724 5713 5734 5733 5734 5745 5754 5743 5759 5768 5745 5740 5721 5730 5717 5707 5724 5729 5719 5717 5707 5683 5670 5673 5682 5675 5657 5651 5645 5649 5649 5643 5643 5648 5648 5655
5697 5700 5701 5701 5702 5704 5709 5716 5726 5726 5706 5727 5733 5736 5745 5747 5740 5744 5756 5744 5731 5720 5720 5706 5721 5734 5729 5718 5712 5704 5692 5683 5682 5674 5665 5670 5643 5636 5640 5639 5634 5631 5630 5633 5634
5696 5699 5699 5700 5698 5704 5707 5721 5722 5721 5685 5712 5726 5741 5744 5745 5734 5754 5756 5744 5730 5716 5715 5711 5727 5730 5728 5720 5725 5709 5724 5704 5686 5680 5666 5678 5630 5628 5630 5629 5625 5619 5619 5620 5624
5694 5696 5696 5696 5699 5702 5714 5717 5719 5714 5662 5722 5728 5756 5746 5734 5737 5735 5748 5742 5717 5720 5718 5708 5720 5722 5721 5730 5728 5730 5734 5714 5706 5692 5678 5664 5636 5621 5622 5616 5610 5608 5608 5608 5609
5690 5692 5691 5691 5692 5708 5712 5715 5711 5672 5663 5712 5730 5725 5725 5732 5729 5732 5730 5733 5725 5717 5713 5713 5727 5727 5726 5732 5734 5738 5718 5703 5690 5681 5660 5641 5634 5587 5594 5590 5591 5597 5600 5602 5604
5686 5688 5686 5692 5700 5706 5710 5705 5663 5653 5706 5701 5711 5720 5717 5713 5709 5708 5696 5688 5688 5689 5680 5697 5708 5715 5722 5720 5724 5715 5697 5663 5665 5656 5640 5625 5612 5581 5581 5583 5580 5582 5585 5587 5589
5682 5683 5685 5692 5698 5700 5701 5676 5654 5678 5689 5706 5709 5712 5702 5708 5695 5694 5687 5675 5679 5680 5665 5668 5670 5691 5705 5701 5703 5700 5692 5664 5653 5640 5630 5619 5578 5571 5573 5573 5571 5570 5569 5570 5573
5678 5676 5679 5695 5695 5689 5677 5644 5652 5673 5685 5686 5696 5694 5697 5700 5691 5679 5670 5668 5673 5673 5669 5661 5670 5690 5693 5692 5694 5691 5673 5679 5651 5640 5618 5573 5563 5568 5571 5565 5562 5560 5560 5558 5558
5674 5675 5680 5692 5690 5682 5657 5647 5661 5678 5682 5684 5675 5681 5679 5681 5679 5671 5663 5664 5669 5670 5668 5662 5656 5669 5680 5686 5684 5682 5674 5661 5645 5631 5614 5582 5559 5561 5551 5547 5546 5543 5543 5544 5546
5669 5669 5679 5684 5682 5662 5640 5644 5664 5678 5677 5672 5668 5669 5668 5667 5661 5651 5653 5655 5660 5663 5662 5658 5650 5656 5661 5641 5642 5647 5646 5639 5633 5621 5614 5586 5561 5543 5535 5531 5528 5528 5530 5530 5531
5661 5655 5673 5675 5650 5630 5638 5651 5661 5662 5665 5664 5665 5660 5655 5651 5645 5642 5644 5644 5648 5652 5652 5645 5628 5620 5630 5631 5630 5623 5616 5615 5621 5614 5591 5589 5536 5532 5529 5521 5517 5516 5518 5520 5521
5651 5650 5666 5666 5635 5632 5641 5647 5647 5649 5646 5648 5648 5650 5642 5636 5636 5632 5632 5639 5640 5641 5637 5637 5610 5600 5610 5616 5617 5602 5599 5600 5584 5575 5546 5579 5517 5513 5512 5507 5503 5502 5506 5508 5511
5647 5641 5644 5640 5628 5634 5635 5633 5634 5640 5634 5634 5632 5636 5630 5621 5616 5615 5620 5628 5630 5629 5629 5619 5578 5589 5596 5599 5589 5583 5576 5582 5582 5569 5532 5525 5499 5502 5498 5493 5489 5488 5489 5493 5497
5637 5628 5627 5613 5616 5614 5620 5618 5620 5612 5617 5618 5621 5612 5614 5607 5604 5603 5610 5613 5615 5613 5606 5593 5563 5567 5565 5570 5569 5555 5552 5553 5547 5543 5559 5515 5501 5490 5487 5484 5480 5478 5479 5482 5487
5632 5626 5611 5599 5604 5608 5599 5599 5603 5601 5599 5603 5600 5599 5602 5597 5598 5591 5596 5597 5600 5596 5588 5570 5548 5560 5543 5551 5553 5543 5536 5530 5524 5517 5509 5498 5482 5481 5480 5476 5473 5470 5469 5471 5475
5620 5618 5615 5588 5590 5592 5581 5586 5586 5591 5589 5586 5585 5584 5582 5581 5586 5581 5575 5568 5573 5582 5568 5558 5538 5530 5524 5541 5548 5531 5508 5505 5498 5494 5495 5485 5479 5469 5466 5465 5463 5461 5459 5458 5461